Location: Zagreb
(45.8000°N, 16.0000°E)
Time: 08:41:51
(UTC+01:00)

N. Korean satellite - Pass Details

Date: 06 December 2021
Orbit: 447 x 491 km, 97.3° (Epoch: 23 January)

Event Time Altitude Azimuth Distance (km) Brightness Sun altitude
Rises 04:52:54 0° 18° (NNE) 2,464 10.3 -25.2°
Reaches altitude 10° 04:55:01 10° 26° (NNE) 1,584 9.4 -24.8°
Maximum altitude 04:58:15 42° 99° (E) 650 7.6 -24.2°
Drops below altitude 10° 05:01:28 10° 172° (S) 1,570 9.3 -23.7°
Sets 05:03:33 0° 179° (S) 2,438 10.3 -23.3°
